PAC1820 KSFO-KLAX

Flight info

Callsign PAC1820
Flight time N/A
Altitude 35000
Route WESLA5 SUSEY EBAYE BURGL IRNMN2
Aircraft B77L/H-SDE1E2E3FGHIJ2J3J4J5M1RWXY/LB1D1

Departure

Time N/A
Airport San Francisco International Airport (KSFO)

Arrival

Time 2026-05-04 00:20
Airport Los Angeles International Airport (KLAX)
Time Latitude Longitude Altitude Speed Heading
2026-05-03 23:32 37.23572 -121.88864 24290 ft 407 kts 140°
2026-05-03 23:32 37.21372 -121.86573 25024 ft 413 kts 140°
2026-05-03 23:33 37.19150 -121.84261 25847 ft 417 kts 141°
2026-05-03 23:33 37.16908 -121.81930 26600 ft 421 kts 141°
2026-05-03 23:33 37.14636 -121.79570 27279 ft 427 kts 141°
2026-05-03 23:33 37.12329 -121.77178 27951 ft 434 kts 141°
2026-05-03 23:34 37.09997 -121.74759 28700 ft 438 kts 141°
2026-05-03 23:34 37.07640 -121.72316 29480 ft 441 kts 141°
2026-05-03 23:34 37.05263 -121.69853 30209 ft 445 kts 141°
2026-05-03 23:34 37.02854 -121.67361 30613 ft 455 kts 143°
2026-05-03 23:35 37.00378 -121.64803 30930 ft 464 kts 144°
2026-05-03 23:35 36.97901 -121.62244 31732 ft 462 kts 144°
2026-05-03 23:35 36.95419 -121.59682 32426 ft 463 kts 145°
2026-05-03 23:35 36.92934 -121.57121 33073 ft 464 kts 146°
2026-05-03 23:36 36.90437 -121.54550 33710 ft 465 kts 147°
2026-05-03 23:36 36.88785 -121.52850 34133 ft 465 kts 147°
2026-05-03 23:36 36.86288 -121.50279 34697 ft 465 kts 148°
2026-05-03 23:36 36.83775 -121.47698 35030 ft 472 kts 148°
2026-05-03 23:37 36.77855 -121.41627 35000 ft 471 kts 148°
2026-05-03 23:37 36.72820 -121.36457 34996 ft 467 kts 148°
2026-05-03 23:38 36.68647 -121.32191 34994 ft 466 kts 150°
2026-05-03 23:38 36.63587 -121.27026 34976 ft 468 kts 150°
2026-05-03 23:39 36.58571 -121.21919 34992 ft 471 kts 149°
2026-05-03 23:39 36.53485 -121.16746 34952 ft 474 kts 151°
2026-05-03 23:40 36.48365 -121.11543 34974 ft 477 kts 151°
2026-05-03 23:40 36.43210 -121.06297 34965 ft 481 kts 150°
2026-05-03 23:41 36.40789 -121.03360 34967 ft 492 kts 142°
2026-05-03 23:41 36.38533 -121.00146 34977 ft 496 kts 140°
2026-05-03 23:41 36.34154 -120.93519 34955 ft 496 kts 139°
2026-05-03 23:42 36.29739 -120.86964 34971 ft 494 kts 140°
2026-05-03 23:42 36.25270 -120.80526 34959 ft 492 kts 141°
2026-05-03 23:43 36.20787 -120.74133 34959 ft 491 kts 142°
2026-05-03 23:43 36.16337 -120.67802 34961 ft 490 kts 142°
2026-05-03 23:44 36.11873 -120.61450 34958 ft 488 kts 142°
2026-05-03 23:44 36.07397 -120.55085 34899 ft 493 kts 142°
2026-05-03 23:45 36.02866 -120.48664 34991 ft 498 kts 142°
2026-05-03 23:45 35.98302 -120.42201 34979 ft 499 kts 142°
2026-05-03 23:46 35.93739 -120.35745 34969 ft 500 kts 142°
2026-05-03 23:46 35.89150 -120.29337 34972 ft 493 kts 146°
2026-05-03 23:47 35.86715 -120.26517 34965 ft 481 kts 152°
2026-05-03 23:47 35.84111 -120.23985 34963 ft 472 kts 157°
2026-05-03 23:47 35.78630 -120.19793 34980 ft 461 kts 162°
2026-05-03 23:48 35.73126 -120.15715 34954 ft 462 kts 161°
2026-05-03 23:48 35.67642 -120.11589 34962 ft 463 kts 161°
2026-05-03 23:49 35.62153 -120.07448 34967 ft 463 kts 161°
2026-05-03 23:49 35.56648 -120.03292 34941 ft 464 kts 160°
2026-05-03 23:50 35.51136 -119.99133 34976 ft 465 kts 161°
2026-05-03 23:50 35.45615 -119.94979 34974 ft 466 kts 161°
2026-05-03 23:51 35.42885 -119.92917 34942 ft 455 kts 161°
2026-05-03 23:51 35.40218 -119.90902 34653 ft 448 kts 161°
2026-05-03 23:51 35.37569 -119.88916 34267 ft 444 kts 161°
2026-05-03 23:51 35.34973 -119.86976 33859 ft 440 kts 162°
2026-05-03 23:52 35.32369 -119.85028 33407 ft 437 kts 162°
2026-05-03 23:52 35.29786 -119.83093 32971 ft 434 kts 162°
2026-05-03 23:52 35.27277 -119.81010 32544 ft 439 kts 156°
2026-05-03 23:52 35.24859 -119.78752 32160 ft 436 kts 156°
2026-05-03 23:53 35.22470 -119.76486 31764 ft 433 kts 156°
2026-05-03 23:53 35.20098 -119.74235 31342 ft 429 kts 156°
2026-05-03 23:53 35.17750 -119.72018 30968 ft 425 kts 156°
2026-05-03 23:53 35.15412 -119.69824 30574 ft 422 kts 156°
2026-05-03 23:54 35.13088 -119.67653 30194 ft 419 kts 156°
2026-05-03 23:54 35.10774 -119.65498 29768 ft 417 kts 156°
2026-05-03 23:54 35.08477 -119.63361 29325 ft 414 kts 156°
2026-05-03 23:54 35.06196 -119.61240 28918 ft 410 kts 156°
2026-05-03 23:55 35.03940 -119.59142 28487 ft 405 kts 156°
2026-05-03 23:55 35.01710 -119.57070 28125 ft 400 kts 156°
2026-05-03 23:55 34.99506 -119.55023 27768 ft 397 kts 156°
2026-05-03 23:55 34.97315 -119.52993 27372 ft 394 kts 156°
2026-05-03 23:56 34.95139 -119.50975 26985 ft 391 kts 156°
2026-05-03 23:56 34.92978 -119.48974 26637 ft 388 kts 156°
2026-05-03 23:56 34.90830 -119.46992 26244 ft 385 kts 156°
2026-05-03 23:56 34.88682 -119.45055 25881 ft 383 kts 157°
2026-05-03 23:57 34.86543 -119.43149 25500 ft 380 kts 157°
2026-05-03 23:57 34.84414 -119.41250 25155 ft 377 kts 157°
2026-05-03 23:57 34.82335 -119.39392 24798 ft 376 kts 157°
2026-05-03 23:57 34.80226 -119.37515 24444 ft 373 kts 157°
2026-05-03 23:58 34.78138 -119.35655 24044 ft 371 kts 157°
2026-05-03 23:58 34.76028 -119.33791 23298 ft 381 kts 156°
2026-05-03 23:58 34.73866 -119.31850 22517 ft 390 kts 154°
2026-05-03 23:58 34.71678 -119.29913 21931 ft 389 kts 154°
2026-05-03 23:59 34.69470 -119.27997 21333 ft 390 kts 154°
2026-05-03 23:59 34.67264 -119.26086 20773 ft 389 kts 153°
2026-05-03 23:59 34.65077 -119.24177 20292 ft 386 kts 152°
2026-05-03 23:59 34.62910 -119.22292 19934 ft 380 kts 152°
2026-05-04 00:00 34.60758 -119.20445 19518 ft 376 kts 152°
2026-05-04 00:00 34.58631 -119.18621 19105 ft 373 kts 151°
2026-05-04 00:00 34.56523 -119.16803 18699 ft 370 kts 150°
2026-05-04 00:00 34.54444 -119.14983 18276 ft 367 kts 149°
2026-05-04 00:01 34.52398 -119.13165 17838 ft 363 kts 148°
2026-05-04 00:01 34.50377 -119.11367 17360 ft 360 kts 148°
2026-05-04 00:01 34.48361 -119.09574 16861 ft 357 kts 148°
2026-05-04 00:01 34.46383 -119.07826 16382 ft 356 kts 148°
2026-05-04 00:02 34.44391 -119.06066 15946 ft 352 kts 148°
2026-05-04 00:02 34.42421 -119.04346 15528 ft 348 kts 148°
2026-05-04 00:02 34.40458 -119.02649 15088 ft 345 kts 148°
2026-05-04 00:02 34.38513 -119.00968 14679 ft 341 kts 148°
2026-05-04 00:03 34.36618 -118.99327 14529 ft 329 kts 148°
2026-05-04 00:03 34.34795 -118.97749 14445 ft 316 kts 148°
2026-05-04 00:03 34.33043 -118.96201 14314 ft 307 kts 147°
2026-05-04 00:03 34.31352 -118.94661 14086 ft 302 kts 147°
2026-05-04 00:04 34.29684 -118.93140 13771 ft 299 kts 147°
2026-05-04 00:04 34.28024 -118.91632 13385 ft 298 kts 147°
2026-05-04 00:04 34.26365 -118.90128 12986 ft 297 kts 147°
2026-05-04 00:04 34.24719 -118.88630 12577 ft 296 kts 147°
2026-05-04 00:05 34.23082 -118.87125 12199 ft 295 kts 146°
2026-05-04 00:05 34.21453 -118.85626 12029 ft 297 kts 146°
2026-05-04 00:05 34.19803 -118.84109 11998 ft 297 kts 146°
2026-05-04 00:05 34.18169 -118.82609 11994 ft 294 kts 146°
2026-05-04 00:06 34.16548 -118.81119 11995 ft 293 kts 146°
2026-05-04 00:06 34.14986 -118.79538 11693 ft 301 kts 142°
2026-05-04 00:06 34.13437 -118.77830 11391 ft 302 kts 141°
2026-05-04 00:06 34.11904 -118.76121 11071 ft 298 kts 141°
2026-05-04 00:07 34.10390 -118.74447 10766 ft 292 kts 141°
2026-05-04 00:07 34.08893 -118.72808 10493 ft 289 kts 141°
2026-05-04 00:07 34.07397 -118.71183 10185 ft 289 kts 141°
2026-05-04 00:07 34.05903 -118.69606 9925 ft 282 kts 142°
2026-05-04 00:08 34.04438 -118.68029 9633 ft 283 kts 141°
2026-05-04 00:08 34.03191 -118.66221 9286 ft 286 kts 119°
2026-05-04 00:08 34.02692 -118.63895 8985 ft 286 kts 98°
2026-05-04 00:08 34.02503 -118.61522 8699 ft 283 kts 99°
2026-05-04 00:09 34.02288 -118.59195 8413 ft 277 kts 99°
2026-05-04 00:09 34.02071 -118.56901 8144 ft 274 kts 99°
2026-05-04 00:09 34.01855 -118.54617 7914 ft 275 kts 99°
2026-05-04 00:09 34.01642 -118.52340 7709 ft 270 kts 99°
2026-05-04 00:10 34.01434 -118.50119 7454 ft 263 kts 99°
2026-05-04 00:10 34.01232 -118.47966 7229 ft 254 kts 99°
2026-05-04 00:10 34.01048 -118.45885 7015 ft 245 kts 96°
2026-05-04 00:10 34.01228 -118.43864 6804 ft 242 kts 80°
2026-05-04 00:11 34.01601 -118.41901 6623 ft 239 kts 79°
2026-05-04 00:11 34.01970 -118.39950 6424 ft 238 kts 81°
2026-05-04 00:11 34.02315 -118.38044 6218 ft 236 kts 81°
2026-05-04 00:11 34.02662 -118.36092 6093 ft 230 kts 80°
2026-05-04 00:12 34.02926 -118.34225 5896 ft 228 kts 85°
2026-05-04 00:12 34.03112 -118.32305 5713 ft 230 kts 86°
2026-05-04 00:12 34.03275 -118.30346 5485 ft 241 kts 86°
2026-05-04 00:12 34.03461 -118.28327 5211 ft 241 kts 86°
2026-05-04 00:13 34.03623 -118.26347 5013 ft 233 kts 87°
2026-05-04 00:13 34.03770 -118.24456 4861 ft 221 kts 86°
2026-05-04 00:13 34.03923 -118.22646 4822 ft 214 kts 85°
2026-05-04 00:13 34.04072 -118.20828 4664 ft 225 kts 85°
2026-05-04 00:14 34.04104 -118.18950 4560 ft 222 kts 105°
2026-05-04 00:14 34.03394 -118.17347 4510 ft 222 kts 137°
2026-05-04 00:14 34.02061 -118.16452 4318 ft 218 kts 166°
2026-05-04 00:14 34.00607 -118.16073 4191 ft 209 kts 171°
2026-05-04 00:15 33.99193 -118.15768 3992 ft 206 kts 171°
2026-05-04 00:15 33.97798 -118.15621 3799 ft 199 kts 192°
2026-05-04 00:15 33.96636 -118.16391 3683 ft 192 kts 230°
2026-05-04 00:15 33.96103 -118.17873 3499 ft 200 kts 253°
2026-05-04 00:16 33.95773 -118.19484 3194 ft 196 kts 255°
2026-05-04 00:16 33.95524 -118.21062 2924 ft 186 kts 258°
2026-05-04 00:16 33.95356 -118.22553 2677 ft 176 kts 259°
2026-05-04 00:16 33.95203 -118.24014 2455 ft 177 kts 261°
2026-05-04 00:17 33.95057 -118.25436 2233 ft 165 kts 261°
2026-05-04 00:17 33.94922 -118.26764 2022 ft 159 kts 261°
2026-05-04 00:17 33.94787 -118.28074 1807 ft 158 kts 259°
2026-05-04 00:17 33.94653 -118.29380 1594 ft 153 kts 259°
2026-05-04 00:18 33.94528 -118.30589 1379 ft 142 kts 259°
2026-05-04 00:18 33.94410 -118.31723 1219 ft 141 kts 262°
2026-05-04 00:18 33.94293 -118.32897 1016 ft 137 kts 261°
2026-05-04 00:18 33.94177 -118.34023 785 ft 136 kts 262°
2026-05-04 00:19 33.94058 -118.35152 638 ft 134 kts 263°
2026-05-04 00:19 33.93949 -118.36250 460 ft 129 kts 266°
2026-05-04 00:19 33.93837 -118.37320 316 ft 129 kts 263°
2026-05-04 00:19 33.93730 -118.38360 142 ft 123 kts 261°
2026-05-04 00:20 33.93629 -118.39300 97 ft 101 kts 263°
2026-05-04 00:20 33.93569 -118.39909 100 ft 45 kts 263°
2026-05-04 00:20 33.93521 -118.40123 102 ft 22 kts 246°
2026-05-04 00:20 33.93472 -118.40195 101 ft 9 kts 196°
2026-05-04 00:21 33.93427 -118.40155 101 ft 9 kts 104°
2026-05-04 00:21 33.93431 -118.40072 98 ft 11 kts 83°
2026-05-04 00:21 33.93440 -118.39976 100 ft 12 kts 83°
2026-05-04 00:21 33.93451 -118.39866 99 ft 14 kts 83°
2026-05-04 00:22 33.93463 -118.39744 101 ft 16 kts 83°
2026-05-04 00:22 33.93478 -118.39606 101 ft 17 kts 83°
2026-05-04 00:22 33.93492 -118.39465 98 ft 15 kts 83°
2026-05-04 00:22 33.93500 -118.39383 98 ft 8 kts 84°
2026-05-04 00:23 33.93463 -118.39340 101 ft 9 kts 170°
2026-05-04 00:23 33.93398 -118.39337 98 ft 9 kts 179°
2026-05-04 00:23 33.93360 -118.39336 100 ft 2 kts 179°
2026-05-04 00:23 33.93359 -118.39336 98 ft 0 kts 179°